Regional Weather Roundup
Issued by NWS

Home | Current Version | Previous Version | Text Only | Print | Product List | Glossary Off
Versions: 1 2 3 4 5 6 7 8 9 10 11 12 13 14 15 16 17 18 19 20 21 22 23 24 25 26 27 28 29 30 31 32 33 34 35 36 37 38 39 40 41 42 43 44 45 46 47 48 49 50

948
ASUS45 KCYS 221110
RWRWY

WYOMING REGIONAL WEATHER ROUNDUP
NATIONAL WEATHER SERVICE CHEYENNE WY
500 AM MDT TUE AUG 22 2017

NOTE:  "FAIR" INDICATES FEW OR NO CLOUDS BELOW 12,000 FEET
WITH NO SIGNIFICANT WEATHER AND/OR OBSTRUCTIONS TO VISIBILITY.

WYZ001-221200-
YELLOWSTONE NATIONAL PARK

CITY           SKY/WX    TMP DP  RH WIND       PRES   REMARKS
LK YELLOWSTONE   N/A     35  33  92 CALM      30.44R
W YELLOWSTONE  NOT AVBL

$$
WYZ002>013-054>058-071-098>099-221200-
NORTHERN WYOMING

CITY           SKY/WX    TMP DP  RH WIND       PRES   REMARKS
JACKSON        FAIR      38  31  76 N6        30.36R WCI  33
CODY           FAIR      54  35  48 S6        30.26S
GREYBULL       FAIR      53  35  50 CALM      30.19S
WORLAND        FAIR      48  34  58 S3        30.20S
SHERIDAN       FAIR      44  38  79 CALM      30.18F
BUFFALO        FAIR      58  33  39 S8        30.25S
GILLETTE       FAIR      58  36  43 S16       30.22S
HULETT         FAIR      52  36  54 SW3       30.24F
NEWCASTLE      FAIR      48  34  57 NE5       30.28S

$$
WYZ014>020-022>026-101>103-221200-
CENTRAL WYOMING

CITY           SKY/WX    TMP DP  RH WIND       PRES   REMARKS
BIG PINEY      FAIR      35  25  66 W6        30.38R WCI  30
PINEDALE       FAIR      34  28  80 NW7       30.39S WCI  28
DUBOIS         FAIR      43  30  61 NW12      30.39S
LANDER           N/A    N/A N/A N/A MISG      30.29S
RIVERTON       FAIR      52  35  52 N8        30.27S
CASPER         FAIR      47  37  68 NW8       30.27S
DOUGLAS        FAIR      54  41  61 SE10      30.27S

$$
WYZ021-027>030-104>119-221200-
SOUTHERN WYOMING

CITY           SKY/WX    TMP DP  RH WIND       PRES   REMARKS
EVANSTON       FAIR      57  36  45 SE6       30.36S
KEMMERER         N/A     43  32  65 N9        30.38S
FORT BRIDGER   FAIR      59  30  34 CALM      30.38S
ROCK SPRINGS   FAIR      58  34  40 E3        30.34S
RAWLINS        NOT AVBL
SARATOGA       FAIR      46  37  71 CALM      30.34S
LARAMIE        FAIR      52  45  77 S17       30.37R
CHEYENNE       CLOUDY    57  49  74 S8        30.34F
TORRINGTON     FAIR      53  43  68 E3        30.26S
PINE BLUFFS    PTSUNNY   54  48  82 CALM      30.33R

$$




USA.gov is the U.S. government's official web portal to all federal, state and local government web resources and services.